CW8198 Weather Reports


time (UTC)temp
C
wind
direction
speed
KPH
gust
KPH
rain 1hr
cm
rain 24hr
cm
rain mn
cm
humidity
%
barometer
mb
20220927024454 12 0 1.6 1.6 0.00 0.00 0.00 78 1017.9
20220927022954 12 0 0.0 0.0 0.00 0.00 0.00 76 1017.9
20220927022456 12 0 0.0 1.6 0.00 0.00 0.00 76 1017.9
20220927021954 12 0 0.0 1.6 0.00 0.00 0.00 75 1018.0
20220927021454 12 0 0.0 1.6 0.00 0.00 0.00 73 1018.1
20220927020954 13 0 0.0 0.0 0.00 0.00 0.00 72 1018.0
20220927020453 13 0 0.0 0.0 0.00 0.00 0.00 72 1018.1
20220927015954 13 0 0.0 0.0 0.00 0.00 0.00 70 1018.2
20220927015453 13 0 0.0 0.0 0.00 0.00 0.00 68 1018.1
20220927014956 13 0 0.0 0.0 0.00 0.00 0.00 66 1018.1
20220927014454 13 0 0.0 0.0 0.00 0.00 0.00 65 1018.0
20220927012955 15 0 0.0 0.0 0.00 0.00 0.00 61 1017.9
20220927012453 15 0 0.0 0.0 0.00 0.00 0.00 59 1017.9
20220927011954 15 0 0.0 1.6 0.00 0.00 0.00 59 1018.0
20220927010952 15 0 1.6 4.8 0.00 0.00 0.00 57 1017.9
20220927010453 15 355 1.6 4.8 0.00 0.00 0.00 59 1017.9
20220927005453 16 355 1.6 3.2 0.00 0.00 0.00 57 1017.9
20220927004453 16 355 0.0 1.6 0.00 0.00 0.00 53 1017.8
20220927003951 17 355 0.0 1.6 0.00 0.00 0.00 51 1017.8
20220927003453 17 355 0.0 0.0 0.00 0.00 0.00 49 1017.8
20220927002952 18 355 0.0 0.0 0.00 0.00 0.00 48 1017.8
20220927002452 18 355 0.0 0.0 0.00 0.00 0.00 46 1017.8
20220927001952 19 355 0.0 0.0 0.00 0.00 0.00 43 1017.7
20220927000451 20 355 0.0 3.2 0.00 0.00 0.00 37 1017.7
20220926235451 21 355 1.6 4.8 0.00 0.00 0.00 36 1017.8
20220926234951 21 355 1.6 4.8 0.00 0.00 0.00 34 1017.8
20220926233952 22 334 4.8 8.0 0.00 0.00 0.00 36 1017.9
20220926233452 22 326 3.2 4.8 0.00 0.00 0.00 34 1017.9
20220926232952 23 302 1.6 8.0 0.00 0.00 0.00 36 1017.9
20220926232453 23 306 3.2 8.0 0.00 0.00 0.00 36 1017.9
20220926231950 23 299 3.2 9.7 0.00 0.00 0.00 37 1017.9
20220926231451 23 337 6.4 9.7 0.00 0.00 0.00 34 1017.9
20220926230950 24 321 4.8 9.7 0.00 0.00 0.00 36 1017.8
20220926225951 24 292 3.2 11.3 0.00 0.00 0.00 35 1017.8
20220926225451 24 303 3.2 9.7 0.00 0.00 0.00 33 1017.7
20220926224952 24 240 3.2 9.7 0.00 0.00 0.00 35 1017.6
20220926224450 24 272 3.2 9.7 0.00 0.00 0.00 36 1017.8
20220926223949 24 223 6.4 9.7 0.00 0.00 0.00 32 1017.7
20220926223449 24 276 4.8 14.5 0.00 0.00 0.00 32 1017.8
20220926222951 24 262 8.0 14.5 0.00 0.00 0.00 34 1017.7
20220926220950 25 327 4.8 11.3 0.00 0.00 0.00 34 1017.9
20220926220449 25 252 3.2 9.7 0.00 0.00 0.00 37 1017.9
20220926215950 25 293 3.2 9.7 0.00 0.00 0.00 32 1017.9
20220926215448 25 353 6.4 9.7 0.00 0.00 0.00 36 1018.0
20220926214449 25 269 4.8 20.9 0.00 0.00 0.00 37 1017.9
20220926212949 25 286 6.4 19.3 0.00 0.00 0.00 33 1018.1
20220926211949 25 268 8.0 22.5 0.00 0.00 0.00 34 1018.2
20220926211447 24 255 4.8 22.5 0.00 0.00 0.00 37 1018.3
20220926205947 24 312 9.7 20.9 0.00 0.00 0.00 38 1018.5
20220926205447 24 323 6.4 19.3 0.00 0.00 0.00 32 1018.4
20220926203449 25 344 11.3 20.9 0.00 0.00 0.00 34 1018.5
20220926202948 25 310 6.4 14.5 0.00 0.00 0.00 35 1018.5
20220926201947 24 213 6.4 17.7 0.00 0.00 0.00 35 1018.5
20220926201447 25 252 8.0 16.1 0.00 0.00 0.00 33 1018.5
20220926200447 25 330 11.3 17.7 0.00 0.00 0.00 31 1018.8
20220926195947 25 271 8.0 20.9 0.00 0.00 0.00 37 1018.8
20220926195447 25 245 8.0 20.9 0.00 0.00 0.00 38 1018.9
20220926194947 25 285 8.0 19.3 0.00 0.00 0.00 33 1018.9
20220926194447 25 307 6.4 14.5 0.00 0.00 0.00 36 1019.0
20220926193947 24 333 6.4 16.1 0.00 0.00 0.00 39 1019.1
20220926192945 24 343 9.7 17.7 0.00 0.00 0.00 35 1019.1
20220926192445 24 334 6.4 17.7 0.00 0.00 0.00 39 1019.0
20220926190446 23 303 6.4 20.9 0.00 0.00 0.00 41 1019.6
20220926184945 23 310 8.0 16.1 0.00 0.00 0.00 39 1019.9
20220926184445 23 258 8.0 17.7 0.00 0.00 0.00 35 1019.9
20220926183946 23 320 6.4 17.7 0.00 0.00 0.00 33 1020.0
20220926183446 23 274 6.4 19.3 0.00 0.00 0.00 38 1020.0
20220926182946 23 344 11.3 19.3 0.00 0.00 0.00 37 1019.8
20220926182445 23 324 4.8 20.9 0.00 0.00 0.00 40 1020.1
20220926181945 23 319 9.7 20.9 0.00 0.00 0.00 40 1020.2
20220926181444 23 283 9.7 22.5 0.00 0.00 0.00 41 1020.2
20220926180445 22 314 8.0 22.5 0.00 0.00 0.00 40 1020.4
20220926175945 22 348 9.7 19.3 0.00 0.00 0.00 42 1020.5
20220926175444 22 327 9.7 20.9 0.00 0.00 0.00 39 1020.7
20220926174943 22 0 9.7 27.4 0.00 0.00 0.00 36 1020.8
20220926173444 22 321 6.4 19.3 0.00 0.00 0.00 39 1020.9
20220926172944 22 25 9.7 19.3 0.00 0.00 0.00 39 1020.9
20220926172445 22 279 8.0 20.9 0.00 0.00 0.00 43 1021.0
20220926171943 22 261 11.3 20.9 0.00 0.00 0.00 40 1021.0
20220926170944 22 343 8.0 17.7 0.00 0.00 0.00 45 1021.1
20220926170443 22 324 6.4 17.7 0.00 0.00 0.00 46 1021.1
20220926165442 21 285 6.4 17.7 0.00 0.00 0.00 44 1021.2
20220926164442 21 276 9.7 24.1 0.00 0.00 0.00 43 1021.3
20220926163442 21 217 6.4 16.1 0.00 0.00 0.00 40 1021.3
20220926155942 20 276 11.3 17.7 0.00 0.00 0.00 48 1021.5
20220926154941 19 279 6.4 16.1 0.00 0.00 0.00 49 1021.6
20220926153442 18 334 6.4 14.5 0.00 0.00 0.00 54 1021.6
20220926152942 18 314 6.4 14.5 0.00 0.00 0.00 55 1021.7
20220926152440 17 333 4.8 11.3 0.00 0.00 0.00 58 1021.8
20220926150940 16 314 3.2 11.3 0.00 0.00 0.00 64 1021.6
20220926145942 15 310 4.8 8.0 0.00 0.00 0.00 67 1021.7
20220926144441 13 292 4.8 9.7 0.00 0.00 0.00 67 1021.8
20220926143941 13 305 6.4 9.7 0.00 0.00 0.00 69 1021.9
20220926143441 13 326 3.2 11.3 0.00 0.00 0.00 72 1022.0
20220926142939 13 327 4.8 11.3 0.00 0.00 0.00 75 1021.9
20220926142440 12 309 6.4 9.7 0.00 0.00 0.00 77 1021.7
20220926141941 11 309 3.2 8.0 0.00 0.00 0.00 82 1021.7
20220926140939 10 329 4.8 8.0 0.00 0.00 0.00 87 1021.9
20220926140441 10 323 1.6 6.4 0.00 0.00 0.00 89 1021.9
20220926135939 9 326 3.2 6.4 0.00 0.00 0.00 91 1021.9
20220926135440 8 310 4.8 6.4 0.00 0.00 0.00 92 1021.8
20220926134439 8 309 3.2 6.4 0.00 0.00 0.00 92 1021.6
20220926132439 5 319 1.6 4.8 0.00 0.00 0.00 92 1021.5
20220926131938 5 319 1.6 3.2 0.00 0.00 0.00 92 1021.5
20220926130939 4 319 0.0 0.0 0.00 0.00 0.00 91 1021.4
20220926130439 3 319 0.0 0.0 0.00 0.00 0.00 91 1021.4
20220926124938 3 319 0.0 0.0 0.00 0.00 0.00 91 1021.4
20220926123936 3 319 0.0 0.0 0.00 0.00 0.00 91 1021.2
20220926123439 3 319 0.0 0.0 0.00 0.00 0.00 90 1021.3
20220926121938 4 319 0.0 0.0 0.00 0.00 0.00 90 1021.0
20220926121438 4 319 0.0 1.6 0.00 0.00 0.00 90 1020.9
20220926120436 4 319 0.0 1.6 0.00 0.00 0.00 90 1020.9
20220926114936 4 319 1.6 1.6 0.00 0.00 0.00 91 1020.9
20220926114437 4 319 0.0 1.6 0.00 0.00 0.00 90 1020.7
20220926113936 4 319 0.0 0.0 0.00 0.00 0.00 90 1020.7
20220926113437 4 319 0.0 0.0 0.00 0.00 0.00 90 1020.4
20220926112937 4 319 0.0 0.0 0.00 0.00 0.00 90 1020.1
20220926112436 4 319 0.0 0.0 0.00 0.00 0.00 90 1020.3
20220926110936 4 319 0.0 0.0 0.00 0.00 0.00 89 1020.4
20220926110437 4 319 0.0 0.0 0.00 0.00 0.00 89 1020.4
20220926105436 5 319 0.0 0.0 0.00 0.00 0.00 89 1020.3
20220926104936 5 319 0.0 0.0 0.00 0.00 0.00 89 1020.2
20220926103936 5 319 0.0 0.0 0.00 0.00 0.00 89 1020.2
20220926102936 5 319 0.0 0.0 0.00 0.00 0.00 88 1020.1
20220926101936 5 319 0.0 0.0 0.00 0.00 0.00 88 1020.0
20220926101436 5 319 0.0 0.0 0.00 0.00 0.00 88 1019.8
20220926100935 5 319 0.0 0.0 0.00 0.00 0.00 88 1019.9
20220926095934 5 319 0.0 0.0 0.00 0.00 0.00 88 1020.0
20220926095435 5 319 0.0 0.0 0.00 0.00 0.00 88 1020.0
20220926093934 5 319 0.0 0.0 0.00 0.00 0.00 87 1019.7
20220926093434 5 319 0.0 0.0 0.00 0.00 0.00 87 1019.7
20220926092434 5 319 0.0 1.6 0.00 0.00 0.00 87 1019.4
20220926091936 5 319 0.0 0.0 0.00 0.00 0.00 87 1019.6
20220926091433 5 319 0.0 0.0 0.00 0.00 0.00 87 1019.6
20220926090933 5 319 0.0 0.0 0.00 0.00 0.00 87 1019.7
20220926090431 5 319 0.0 0.0 0.00 0.00 0.00 86 1019.7
20220926085431 5 319 0.0 0.0 0.00 0.00 0.00 86 1019.8
20220926084933 5 319 0.0 0.0 0.00 0.00 0.00 85 1019.8
20220926084433 6 319 0.0 0.0 0.00 0.00 0.00 85 1019.8
20220926083934 6 319 0.0 0.0 0.00 0.00 0.00 85 1019.7
20220926083432 6 319 0.0 1.6 0.00 0.00 0.00 85 1019.7
20220926082932 6 319 0.0 1.6 0.00 0.00 0.00 85 1019.7
20220926082433 6 319 0.0 0.0 0.00 0.00 0.00 85 1019.7
20220926081930 6 319 0.0 0.0 0.00 0.00 0.00 84 1019.7
20220926080431 6 319 0.0 0.0 0.00 0.00 0.00 83 1019.6
20220926074933 6 319 0.0 0.0 0.00 0.00 0.00 81 1019.6
20220926074431 6 319 0.0 0.0 0.00 0.00 0.00 81 1019.6
20220926073931 6 319 0.0 0.0 0.00 0.00 0.00 81 1019.6
20220926072935 7 319 0.0 0.0 0.00 0.00 0.00 80 1019.4
20220926072431 7 319 0.0 1.6 0.00 0.00 0.00 80 1019.5
20220926071433 7 319 1.6 3.2 0.00 0.00 0.00 79 1019.5
20220926070431 7 319 0.0 1.6 0.00 0.00 0.00 78 1019.3
20220926065930 7 319 0.0 1.6 0.00 0.00 0.00 76 1019.4
20220926063930 7 319 0.0 3.2 0.00 0.00 0.00 74 1019.3
20220926063431 7 319 1.6 3.2 0.00 0.00 0.00 74 1019.3
20220926062931 7 319 1.6 4.8 0.00 0.00 0.00 74 1019.4
20220926062431 8 319 1.6 4.8 0.00 0.00 0.00 74 1019.3
20220926061929 8 319 3.2 6.4 0.00 0.00 0.00 74 1019.4
20220926061429 8 324 4.8 6.4 0.00 0.00 0.00 74 1019.3
20220926060430 8 324 4.8 8.0 0.00 0.00 0.00 74 1019.4
20220926055929 8 314 3.2 4.8 0.00 0.00 0.00 74 1019.3
20220926055430 8 316 3.2 4.8 0.00 0.00 0.00 75 1019.4
20220926054429 8 317 0.0 1.6 0.00 0.00 0.00 75 1019.4
20220926053929 8 317 0.0 3.2 0.00 0.00 0.00 75 1019.3
20220926053429 8 317 1.6 3.2 0.00 0.00 0.00 75 1019.4
20220926052929 8 317 0.0 4.8 0.00 0.00 0.00 75 1019.2
20220926052430 8 317 3.2 4.8 0.00 0.00 0.00 74 1019.3
20220926051929 8 329 1.6 6.4 0.00 0.00 0.00 74 1019.3
20220926050929 8 329 4.8 6.4 0.00 0.00 0.00 73 1019.2
20220926050429 9 319 3.2 4.8 0.00 0.00 0.00 73 1019.1
20220926045929 9 319 0.0 0.0 0.00 0.00 0.00 72 1018.9
20220926044929 10 319 0.0 0.0 0.00 0.00 0.00 68 1019.0
20220926042928 10 319 0.0 1.6 0.00 0.00 0.00 65 1018.9
20220926042428 11 319 0.0 3.2 0.00 0.00 0.00 64 1018.9
20220926041927 11 319 0.0 3.2 0.00 0.00 0.00 63 1018.8
20220926041428 11 319 1.6 3.2 0.00 0.00 0.00 62 1018.9
20220926040428 11 319 1.6 4.8 0.00 0.00 0.00 59 1018.7
20220926035927 11 319 3.2 4.8 0.00 0.00 0.00 59 1018.8
20220926035427 11 320 3.2 4.8 0.00 0.00 0.00 59 1018.8
20220926034927 11 319 3.2 4.8 0.00 0.00 0.00 59 1018.8
20220926034427 11 319 3.2 4.8 0.00 0.00 0.00 59 1018.7
20220926033929 11 319 3.2 4.8 0.00 0.00 0.00 58 1018.7
20220926032428 12 317 3.2 4.8 0.00 0.00 0.00 56 1018.5
20220926031927 12 317 3.2 4.8 0.00 0.00 0.00 54 1018.4
20220926031427 12 317 3.2 4.8 0.00 0.00 0.00 54 1018.5
20220926030926 12 317 3.2 4.8 0.00 0.00 0.00 55 1018.4
20220926030426 12 317 1.6 4.8 0.00 0.00 0.00 54 1018.5
20220926025927 12 317 1.6 3.2 0.00 0.00 0.00 55 1018.4
20220926025426 12 317 1.6 3.2 0.00 0.00 0.00 56 1018.3
20220926024926 12 317 1.6 3.2 0.00 0.00 0.00 55 1018.4